{"data":{"norad_id":59571,"intl_designator":"2024-076H","name":"STARLINK-31606","alt_names":[],"object_type":"PAYLOAD","status":"ACTIVE","operator":null,"country":"US","launch_date":"2024-04-23","launch_site_code":"AFETR","launch_vehicle":null,"mission":null,"orbit_class":"UNKNOWN","rcs_meters":null,"size_class":null,"mass_kg":null,"dimensions":null,"purposes":["comms"],"wikipedia_slug":null,"has_3d_model":false,"image_url":null,"decayed_at":null,"tle_current":{"epoch":"2026-09-21T22:00:03.000096Z","epoch_age_seconds":45855,"freshness":"FRESH","line1":"1 59571U 24076H   26264.91670139 -.00030329  00000+0 -10964-2 0  9992","line2":"2 59571  43.0021 340.4065 0001635 273.8846 235.6474 15.27599967  5819","mean_motion":15.27599967,"eccentricity":0.0001635,"inclination_deg":43.0021,"raan_deg":340.4065,"arg_perigee_deg":273.8846,"mean_anomaly_deg":235.6474,"bstar":-0.0010964,"rev_number":581,"period_min":94.265516568972,"perigee_km":481.86751415839,"apogee_km":484.11110246121,"semimajor_km":6861.1263083098,"source":"CELESTRAK","updated_at":"2026-09-22T09:00:49.001885Z"}}}